TimeEDT,TemperatureF,Dew PointF,Humidity,Sea Level PressureIn,VisibilityMPH,Wind Direction,Wind SpeedMPH,Gust SpeedMPH,PrecipitationIn,Events,Conditions,WindDirDegrees,DateUTC
12:15 AM,44.6,41.0,87,30.02,10.0,Calm,Calm,-,N/A,,Clear,0,2014-04-24 04:15:00
12:35 AM,44.6,39.2,81,30.02,10.0,Calm,Calm,-,N/A,,Clear,0,2014-04-24 04:35:00
12:55 AM,44.6,39.2,81,30.01,10.0,Calm,Calm,-,N/A,,Clear,0,2014-04-24 04:55:00
1:35 AM,42.8,37.4,81,30.01,10.0,Calm,Calm,-,N/A,,Clear,0,2014-04-24 05:35:00
1:55 AM,42.8,37.4,81,30.00,10.0,Calm,Calm,-,N/A,,Clear,0,2014-04-24 05:55:00
2:15 AM,41.0,39.2,93,29.99,10.0,Calm,Calm,-,N/A,,Clear,0,2014-04-24 06:15:00
2:35 AM,41.0,37.4,87,29.98,10.0,Calm,Calm,-,N/A,,Clear,0,2014-04-24 06:35:00
2:55 AM,41.0,37.4,87,29.98,10.0,Calm,Calm,-,N/A,,Clear,0,2014-04-24 06:55:00
3:15 AM,41.0,37.4,87,29.99,10.0,Calm,Calm,-,N/A,,Clear,0,2014-04-24 07:15:00
3:35 AM,41.0,35.6,81,29.99,10.0,Calm,Calm,-,N/A,,Clear,0,2014-04-24 07:35:00
3:55 AM,39.2,37.4,93,30.00,10.0,Calm,Calm,-,N/A,,Clear,0,2014-04-24 07:55:00
4:15 AM,39.2,35.6,87,30.01,10.0,Calm,Calm,-,N/A,,Clear,0,2014-04-24 08:15:00
4:35 AM,39.2,37.4,93,30.01,10.0,Calm,Calm,-,N/A,,Clear,0,2014-04-24 08:35:00
4:55 AM,39.2,35.6,87,30.00,10.0,Calm,Calm,-,N/A,,Clear,0,2014-04-24 08:55:00
5:15 AM,37.4,35.6,93,30.01,10.0,Calm,Calm,-,N/A,,Clear,0,2014-04-24 09:15:00
5:35 AM,39.2,35.6,87,30.01,10.0,NNE,3.5,-,N/A,,Clear,30,2014-04-24 09:35:00
5:55 AM,39.2,35.6,87,30.02,10.0,Calm,Calm,-,N/A,,Clear,0,2014-04-24 09:55:00
6:15 AM,39.2,35.6,87,30.02,10.0,NE,3.5,-,N/A,,Clear,40,2014-04-24 10:15:00
6:35 AM,41.0,35.6,81,30.02,10.0,NE,3.5,-,N/A,,Clear,40,2014-04-24 10:35:00
6:55 AM,42.8,35.6,76,30.03,10.0,Calm,Calm,-,N/A,,Clear,0,2014-04-24 10:55:00
7:15 AM,42.8,35.6,76,30.04,10.0,Calm,Calm,-,N/A,,Clear,0,2014-04-24 11:15:00
7:35 AM,42.8,35.6,76,30.05,10.0,NE,4.6,-,N/A,,Clear,50,2014-04-24 11:35:00
7:55 AM,44.6,35.6,71,30.05,10.0,NE,3.5,-,N/A,,Clear,40,2014-04-24 11:55:00
8:15 AM,46.4,37.4,71,30.06,10.0,Calm,Calm,-,N/A,,Clear,0,2014-04-24 12:15:00
8:35 AM,48.2,37.4,66,30.06,10.0,NE,3.5,-,N/A,,Clear,40,2014-04-24 12:35:00
8:55 AM,50.0,37.4,62,30.07,10.0,East,3.5,-,N/A,,Clear,80,2014-04-24 12:55:00
9:15 AM,51.8,37.4,58,30.07,10.0,Calm,Calm,-,N/A,,Clear,0,2014-04-24 13:15:00
9:35 AM,53.6,39.2,58,30.06,10.0,Calm,Calm,-,N/A,,Clear,0,2014-04-24 13:35:00
9:55 AM,55.4,39.2,54,30.06,10.0,Calm,Calm,-,N/A,,Clear,0,2014-04-24 13:55:00
10:15 AM,60.8,41.0,48,30.06,10.0,Calm,Calm,-,N/A,,Clear,0,2014-04-24 14:15:00
10:35 AM,64.4,39.2,40,30.06,10.0,Calm,Calm,-,N/A,,Clear,0,2014-04-24 14:35:00
10:55 AM,66.2,37.4,35,30.06,10.0,SW,6.9,-,N/A,,Clear,220,2014-04-24 14:55:00
11:15 AM,68.0,35.6,30,30.06,10.0,SW,5.8,-,N/A,,Clear,220,2014-04-24 15:15:00
11:35 AM,69.8,33.8,27,30.05,10.0,SW,4.6,-,N/A,,Clear,220,2014-04-24 15:35:00
11:55 AM,69.8,35.6,28,30.04,10.0,Calm,Calm,-,N/A,,Clear,0,2014-04-24 15:55:00
12:15 PM,71.6,37.4,29,30.03,10.0,Variable,4.6,-,N/A,,Clear,0,2014-04-24 16:15:00
12:35 PM,73.4,39.2,29,30.02,10.0,Variable,3.5,-,N/A,,Clear,0,2014-04-24 16:35:00
12:55 PM,73.4,39.2,29,30.01,10.0,Variable,5.8,-,N/A,,Clear,0,2014-04-24 16:55:00
1:15 PM,73.4,39.2,29,30.01,10.0,Variable,6.9,-,N/A,,Clear,0,2014-04-24 17:15:00
1:35 PM,73.4,39.2,29,29.99,10.0,West,4.6,-,N/A,,Clear,260,2014-04-24 17:35:00
1:55 PM,75.2,39.2,27,29.98,10.0,Variable,5.8,-,N/A,,Clear,0,2014-04-24 17:55:00
2:15 PM,75.2,39.2,27,29.98,10.0,West,6.9,-,N/A,,Clear,280,2014-04-24 18:15:00
2:35 PM,75.2,39.2,27,29.97,10.0,WSW,9.2,-,N/A,,Clear,250,2014-04-24 18:35:00
2:55 PM,75.2,39.2,27,29.97,10.0,SW,10.4,-,N/A,,Clear,220,2014-04-24 18:55:00
3:15 PM,75.2,37.4,25,29.96,10.0,SW,9.2,-,N/A,,Clear,220,2014-04-24 19:15:00
3:35 PM,77.0,35.6,22,29.96,10.0,SSW,8.1,-,N/A,,Clear,210,2014-04-24 19:35:00
3:55 PM,77.0,35.6,22,29.95,10.0,WSW,10.4,-,N/A,,Clear,240,2014-04-24 19:55:00
4:15 PM,77.0,35.6,22,29.95,10.0,SW,11.5,-,N/A,,Clear,230,2014-04-24 20:15:00
4:35 PM,77.0,35.6,22,29.94,10.0,SW,17.3,-,N/A,,Clear,230,2014-04-24 20:35:00
4:55 PM,77.0,37.4,24,29.94,10.0,SSW,8.1,-,N/A,,Clear,200,2014-04-24 20:55:00
5:15 PM,77.0,37.4,24,29.93,10.0,Variable,5.8,-,N/A,,Clear,0,2014-04-24 21:15:00
5:35 PM,77.0,37.4,24,29.93,10.0,SSW,10.4,-,N/A,,Clear,210,2014-04-24 21:35:00
5:55 PM,77.0,39.2,26,29.92,10.0,Variable,6.9,-,N/A,,Clear,0,2014-04-24 21:55:00
6:15 PM,77.0,41.0,28,29.92,10.0,South,6.9,-,N/A,,Clear,180,2014-04-24 22:15:00
6:35 PM,77.0,42.8,29,29.91,10.0,Variable,4.6,-,N/A,,Clear,0,2014-04-24 22:35:00
6:55 PM,75.2,44.6,34,29.90,10.0,South,4.6,-,N/A,,Clear,170,2014-04-24 22:55:00
7:15 PM,75.2,44.6,34,29.89,10.0,Variable,4.6,-,N/A,,Clear,0,2014-04-24 23:15:00
7:35 PM,73.4,44.6,36,29.89,10.0,Variable,3.5,-,N/A,,Clear,0,2014-04-24 23:35:00
7:55 PM,71.6,46.4,41,29.89,10.0,Variable,3.5,-,N/A,,Clear,0,2014-04-24 23:55:00
8:15 PM,71.6,46.4,41,29.89,10.0,Calm,Calm,-,N/A,,Clear,0,2014-04-25 00:15:00
8:35 PM,69.8,46.4,43,29.90,10.0,Calm,Calm,-,N/A,,Clear,0,2014-04-25 00:35:00
8:55 PM,66.2,48.2,52,29.90,10.0,Calm,Calm,-,N/A,,Clear,0,2014-04-25 00:55:00
9:15 PM,62.6,48.2,59,29.91,10.0,Calm,Calm,-,N/A,,Clear,0,2014-04-25 01:15:00
9:35 PM,62.6,50.0,63,29.91,10.0,Calm,Calm,-,N/A,,Clear,0,2014-04-25 01:35:00
9:55 PM,60.8,51.8,72,29.90,10.0,Calm,Calm,-,N/A,,Clear,0,2014-04-25 01:55:00
10:15 PM,60.8,51.8,72,29.89,10.0,Calm,Calm,-,N/A,,Clear,0,2014-04-25 02:15:00
10:35 PM,60.8,48.2,63,29.88,10.0,Calm,Calm,-,N/A,,Clear,0,2014-04-25 02:35:00
10:55 PM,60.8,48.2,63,29.89,10.0,Calm,Calm,-,N/A,,Clear,0,2014-04-25 02:55:00
11:15 PM,59.0,48.2,67,29.88,10.0,Calm,Calm,-,N/A,,Partly Cloudy,0,2014-04-25 03:15:00
11:35 PM,60.8,48.2,63,29.88,10.0,Calm,Calm,-,N/A,,Partly Cloudy,0,2014-04-25 03:35:00
11:55 PM,60.8,48.2,63,29.88,10.0,Calm,Calm,-,N/A,,Clear,0,2014-04-25 03:55:00